This is the latest recevied weather packets stored in our database for station/object DK4DAX-2. If no packets are shown the sender has not sent any weather packets the latest 10 day(s).
| Time | Temp. | Humidity | Pressure | Rain* | Wind** | Luminosity | Snow |
|---|---|---|---|---|---|---|---|
| 1777644002 | 26.67° C | 11% | 1015.6 hPa | 0 mm | - | - | - |
| 1777643102 | 27.22° C | 10% | 1015.9 hPa | 0 mm | - | - | - |
| 1777642202 | 27.22° C | 10% | 1016.1 hPa | 0 mm | - | - | - |
| 1777641302 | 28.33° C | 13% | 1016.5 hPa | 0 mm | - | - | - |
| 1777640402 | 27.22° C | 10% | 1016.5 hPa | 0 mm | - | - | - |
| 1777639501 | 27.78° C | 13% | 1017 hPa | 0 mm | - | - | - |
| 1777638602 | 30° C | 11% | 1016.9 hPa | 0 mm | - | - | - |
| 1777637702 | 28.33° C | 13% | 1017.1 hPa | 0 mm | - | - | - |
| 1777636801 | 27.78° C | 10% | 1017.3 hPa | 0 mm | - | - | - |
| 1777635901 | 27.78° C | 10% | 1017.5 hPa | 0 mm | - | - | - |
| 1777635002 | 26.11° C | 11% | 1017.5 hPa | 0 mm | - | - | - |
| 1777634102 | 25.56° C | 12% | 1017.7 hPa | 0 mm | - | - | - |
| 1777633202 | 25.56° C | 12% | 1017.7 hPa | 0 mm | - | - | - |
| 1777632302 | 25° C | 12% | 1018.3 hPa | 0 mm | - | - | - |
| 1777631402 | 25° C | 13% | 1018.4 hPa | 0 mm | - | - | - |
| 1777630502 | 23.89° C | 13% | 1018.4 hPa | 0 mm | - | - | - |
| 1777629602 | 22.22° C | 11% | 1018.3 hPa | 0 mm | - | - | - |
| 1777628701 | 21.67° C | 12% | 1018.7 hPa | 0 mm | - | - | - |
| 1777627801 | 20.56° C | 13% | 1019 hPa | 0 mm | - | - | - |
| 1777626902 | 19.44° C | 14% | 1018.9 hPa | 0 mm | - | - | - |
| 1777626002 | 19.44° C | 14% | 1019 hPa | 0 mm | - | - | - |
| 1777625102 | 19.44° C | 14% | 1019.2 hPa | 0 mm | - | - | - |
| 1777624202 | 19.44° C | 14% | 1019.4 hPa | 0 mm | - | - | - |
| 1777623302 | 18.89° C | 15% | 1019.1 hPa | 0 mm | - | - | - |
| 1777622402 | 18.89° C | 15% | 1019.3 hPa | 0 mm | - | - | - |
* Rain latest hour (hover to see other rain measurements)
** Current wind speed in m/s (hover to see current wind gust speed)